Content
SEND FEEDBACK

Daily
Averages
Monthly
Summary
Australia

ELIZABETH, SOUTH AUSTRALIA


Home > Oceania > Australia > South Australia
Elevation: 70 feet     Latitude: 34 42S     Longitude: 138 37E

WEATHER
 
SELECT A DAY
Number of Records: 294,568;   Date Range: 7/1/96 - 7/9/14
 
SHARE

PRINT THIS DATA

[ ← Previous Day ]
WEATHER ALMANAC - JANUARY 23, 2013
[ Next Day → ]
[ °C ]   °F
Weather ElementAverageHighLow
Temperature70.8 °F86 °F (6:00 pm)59 °F (5:30 am)
Dewpoint50.2 °F56 °F (1:30 am)41 °F (6:00 pm)
Humidity49.5 %82 % (3:00 am)12 % (6:00 pm)
Barometer29.98 in30.06 in (7:30 am)29.86 in (6:10 pm)
Wind Speed11 mph21.9 mph (3:00 pm)
Weather ElementAverage
Visibility10.7 mi
Wind DirectionSSE (159.7 °)

Weather ElementTotal
Precipitation---
Cooling Degree Days7.5 (Base 65)
Growing Degree Days22.5 (Base 50)
Averaged from 64 records on January 23, 2013
WEATHER CONDITIONS BREAKOUT
WIND DIRECTION BREAKOUT
WEATHER BY HOUR - JANUARY 23, 2013
[ °C ]   °F
Local TimeTemperatureDewpointHumidityBarometerVisibilityWind DirectionWind SpeedGust SpeedPrecipitationEventsConditions
12:00 AM66.2 °F55.4 °F68 %30.01 in6.2 miSE (130°)8.1 mphPartly Cloudy
12:30 AM64.4 °F55.4 °F73 %30.01 in6.2 miSE (140°)8.1 mphPartly Cloudy
1:00 AM64.4 °F55.4 °F73 %30.01 in6.2 miSSE (160°)5.8 mphPartly Cloudy
1:30 AM63.0 °F56.0 °F70 %30.03 inSE (130°)5.8 mph
1:30 AM62.6 °F55.4 °F77 %30.01 in6.2 miSE (130°)5.8 mphPartly Cloudy
2:00 AM62.6 °F55.4 °F77 %30.01 in6.2 miSouth (180°)6.9 mphPartly Cloudy
2:30 AM62.6 °F55.4 °F77 %30.01 in6.2 miSouth (190°)6.9 mphPartly Cloudy
3:00 AM60.8 °F55.4 °F82 %30.01 in6.2 miSouth (180°)6.9 mphPartly Cloudy
3:00 AM61.0 °F55.0 °F75 %30.01 in25.0 miSouth (180°)6.9 mphPartly Cloudy
3:30 AM60.8 °F55.4 °F82 %30.01 in6.2 miSouth (190°)5.8 mphPartly Cloudy
4:00 AM60.8 °F55.4 °F82 %30.01 in6.2 miSouth (190°)5.8 mphPartly Cloudy
4:30 AM60.0 °F54.0 °F75 %30.01 inSouth (190°)6.9 mph
4:30 AM60.8 °F53.6 °F77 %30.01 in6.2 miSouth (190°)6.9 mphPartly Cloudy
5:00 AM60.8 °F53.6 °F77 %30.01 in6.2 miSSW (200°)6.9 mphPartly Cloudy
5:30 AM59.0 °F53.6 °F82 %30.01 in6.2 miSouth (180°)6.9 mphPartly Cloudy
6:00 AM59.0 °F53.6 °F82 %30.01 in6.2 miSouth (170°)8.1 mphPartly Cloudy
6:00 AM60.0 °F54.0 °F74 %30.03 in25.0 miSouth (170°)8.1 mphPartly Cloudy
6:30 AM60.8 °F53.6 °F77 %30.04 in6.2 miSSE (150°)8.1 mphPartly Cloudy
7:00 AM62.6 °F53.6 °F72 %30.04 in6.2 miSE (130°)9.2 mphPartly Cloudy
7:30 AM64.0 °F53.0 °F58 %30.06 inESE (120°)8.1 mph
7:30 AM64.4 °F53.6 °F68 %30.04 in6.2 miESE (120°)8.1 mphPartly Cloudy
8:00 AM64.4 °F50.0 °F59 %30.04 in6.2 miESE (120°)9.2 mphPartly Cloudy
8:30 AM68.0 °F48.2 °F49 %30.06 in6.2 miESE (110°)12.7 mphPartly Cloudy
9:00 AM68.0 °F46.4 °F46 %30.06 in6.2 miESE (110°)13.8 mphPartly Cloudy
9:00 AM68.0 °F46.0 °F35 %30.06 in25.0 miESE (110°)13.8 mphPartly Cloudy
9:30 AM69.8 °F46.4 °F43 %30.04 in6.2 miESE (120°)15.0 mphPartly Cloudy
10:00 AM71.6 °F44.6 °F38 %30.04 inSE (130°)12.7 mphClear
10:30 AM72.0 °F46.0 °F28 %30.05 inEast (100°)10.4 mph
10:30 AM71.6 °F46.4 °F41 %30.04 in6.2 miEast (100°)10.4 mphPartly Cloudy
11:00 AM71.6 °F44.6 °F38 %30.04 inSE (140°)8.1 mphClear
11:30 AM75.2 °F44.6 °F34 %30.04 inSE (130°)8.1 mphClear
12:00 PM77.0 °F44.6 °F32 %30.01 in6.2 miEast (100°)11.5 mphPartly Cloudy
12:00 PM77.0 °F45.0 °F21 %30.02 in25.0 miEast (100°)11.5 mphPartly Cloudy
12:30 PM78.8 °F42.8 °F28 %30.01 inEast (90°)6.9 mphClear
1:00 PM80.6 °F42.8 °F26 %30.01 inESE (110°)6.9 mphClear
1:30 PM78.0 °F48.0 °F24 %30.00 inWSW (240°)13.8 mph
1:30 PM78.8 °F48.2 °F34 %29.98 inWSW (240°)13.8 mphClear
2:00 PM77.0 °F50.0 °F39 %29.98 inWSW (240°)16.1 mphClear
2:30 PM78.8 °F46.4 °F32 %29.95 inWSW (250°)16.1 mphClear
3:00 PM77.0 °F53.6 °F44 %29.95 inWSW (240°)21.9 mphClear
3:00 PM77.0 °F53.0 °F32 %29.96 in25.0 miWSW (240°)21.9 mphPartly Cloudy
3:30 PM77.0 °F53.6 °F44 %29.95 inWSW (240°)20.7 mphClear
4:00 PM78.8 °F53.6 °F42 %29.92 inWest (260°)19.6 mphClear
4:30 PM79.0 °F56.0 °F34 %29.93 inWSW (250°)18.4 mph
4:30 PM78.8 °F55.4 °F44 %29.92 inWSW (250°)18.4 mphClear
5:00 PM82.4 °F51.8 °F35 %29.92 inWSW (250°)13.8 mphClear
5:30 PM82.4 °F51.8 °F35 %29.89 inWest (280°)9.2 mphClear
6:00 PM86.0 °F41.0 °F20 %29.89 inSouth (180°)5.8 mphClear
6:00 PM85.0 °F41.0 °F12 %29.89 in25.0 miSouth (180°)5.8 mphPartly Cloudy
6:10 PM84.2 °F44.6 °F25 %29.86 inEast (90°)17.3 mphClear
6:30 PM82.4 °F44.6 °F26 %29.89 inESE (120°)17.3 mphClear
7:00 PM80.6 °F44.6 °F28 %29.89 inSE (130°)16.1 mphClear
7:30 PM79.0 °F47.0 °F22 %29.91 inSE (130°)16.1 mph
7:30 PM78.8 °F46.4 °F32 %29.89 inSE (130°)16.1 mphClear
8:00 PM75.2 °F48.2 °F38 %29.92 inESE (120°)12.7 mphClear
8:30 PM73.4 °F50.0 °F44 %29.92 inESE (120°)12.7 mphClear
9:00 PM71.6 °F50.0 °F46 %29.92 inESE (120°)11.5 mphClear
9:00 PM71.0 °F50.0 °F37 %29.93 in25.0 miESE (120°)11.5 mphPartly Cloudy
9:30 PM69.8 °F50.0 °F49 %29.92 inSE (130°)10.4 mphClear
10:00 PM68.0 °F50.0 °F52 %29.92 inSE (140°)10.4 mphClear
10:30 PM68.0 °F50.0 °F41 %29.93 inSE (130°)9.2 mph
10:30 PM68.0 °F50.0 °F52 %29.92 inSE (130°)9.2 mphClear
11:00 PM66.2 °F50.0 °F56 %29.92 inSE (130°)9.2 mphClear
11:30 PM66.2 °F50.0 °F56 %29.92 inSSE (150°)5.8 mphClear
Hourly data recorded from YPAD, located miles away from Elizabeth, South Australia







STORIES FROM OUR PARTNERS